Location: Appeville
(49.3218°N, 1.3427°W)
Time: 12:02:20
(UTC+00:00)

Cosmos 2082 - Pass Details

Date: 08 December 2019
Orbit: 834 x 855 km, 71.0° (Epoch: 23 January)

Event Time Altitude Azimuth Distance (km) Brightness Sun altitude
Exits shadow 04:57:27 68° 337° (NNW) 900 3.6 -26.6°
Drops below altitude 10° 05:02:37 10° 26° (NNE) 2,456 6.3 -25.7°
Sets 05:05:05 0° 28° (NNE) 3,393 7.1 -25.3°
